Location: Goettingen
(51.5300°N, 9.9433°E)
Time: 19:38:58
(UTC+02:00)

ISS - Pass Details

Date: 15 July 2019
Orbit: 409 x 418 km, 51.6° (Epoch: 20 July)

Event Time Altitude Azimuth Distance (km) Brightness Sun altitude
Exits shadow 23:58:16 30° 180° (S) 771 -3.0 -14.5°
Maximum altitude 23:58:58 34° 152° (SSE) 708 -3.2 -14.5°
Drops below altitude 10° 00:02:01 10° 85° (E) 1,484 -1.1 -14.7°
Sets 00:04:13 0° 76° (ENE) 2,347 0.0 -14.8°
